Find Starlink 11681

NORAD ID: 63755 Int'l Des: 2025-089 Owner: SPXS Country: US Constellation: starlink operational
LEOCIRCULAR

实时位置

正在加载3D地球...

关于 Starlink 11681

正在加载描述...

即将过境

Passes for default location (London). Set your location on the main map for personalized predictions.

高度历史

Loading altitude history...

两行轨道根数

1 63755U 25089E 26127.82742796 .00146890 00000-0 11227-2 0 9996
2 63755 42.9984 296.0239 0003840 31.8081 328.3018 15.70948704 59432
Epoch: May 7, 2026 • Age: 12 hours

当前状态

高度 366.1 km
速度 7.69 km/s
星下点 -29.62°S, 171.83°E
发射日期 Apr 29, 2025
运行时间 1 years
类型 internet

技术详情

分类 Payload
质量 960.00 kg
干质量 910.00 kg
总质量 960.00 kg
长度 0.30 m
直径 4.10 m
跨度 29.00 m
形状 Box + pan
制造商 SPXS
平台类型 Starlink V2MD
阶段状态 In Orbit
所有者/国家 SPXS/US

Most Searched